HB9SZU-7 Weather Reports


Display with metric or nautical units.
time (UTC)temp
F
wind
direction
speed
MPH
gust
MPH
rain 1hr
in
rain 24hr
in
rain mn
in
humidity
%
barometer
mb
20260506231919 46 0.0 0.0 0.00 0.00 0.00 82 930.9
20260506230319 46 0.0 0.0 0.00 0.00 0.00 82 931.0
20260506224719 46 0.0 0.0 0.00 0.00 0.00 81 931.3
20260506223118 46 0.0 0.0 0.00 0.00 0.00 81 931.1
20260506221519 46 0.0 0.0 0.00 0.00 0.00 81 931.1
20260506215919 46 0.0 0.0 0.00 0.00 0.00 81 930.8
20260506214319 46 0.0 0.0 0.00 0.00 0.00 80 930.6
20260506212719 46 0.0 0.0 0.00 0.00 0.00 80 930.6
20260506211119 46 0.0 0.0 0.00 0.00 0.00 78 931.0
20260506205519 47 0.0 0.0 0.00 0.00 0.00 77 930.6
20260506203919 46 0.0 0.0 0.00 0.00 0.00 77 930.3
20260506202319 46 0.0 0.0 0.00 0.00 0.00 77 930.4
20260506200719 46 0.0 0.0 0.00 0.00 0.00 77 930.4
20260506195119 47 0.0 0.0 0.00 0.00 0.00 78 930.2
20260506193519 47 0.0 0.0 0.00 0.00 0.00 78 929.8
20260506191919 48 0.0 0.0 0.00 0.00 0.00 79 929.8
20260506190319 48 0.0 0.0 0.00 0.00 0.00 78 929.6
20260506184718 49 0.0 0.0 0.00 0.00 0.00 75 929.0
20260506183119 48 0.0 0.0 0.00 0.00 0.00 78 928.6
20260506181519 48 0.0 0.0 0.00 0.00 0.00 78 928.7
20260506175919 49 0.0 0.0 0.00 0.00 0.00 79 928.6
20260506174319 49 0.0 0.0 0.00 0.00 0.00 77 928.3
20260506172718 49 0.0 0.0 0.00 0.00 0.00 77 928.3
20260506171119 49 0.0 0.0 0.00 0.00 0.00 77 928.3
20260506165518 49 0.0 0.0 0.00 0.00 0.00 81 928.5
20260506163919 49 0.0 0.0 0.00 0.00 0.00 81 928.3
20260506162319 49 0.0 0.0 0.00 0.00 0.00 80 927.9
20260506160719 49 0.0 0.0 0.00 0.00 0.00 79 928.1
20260506155119 49 0.0 0.0 0.00 0.00 0.00 80 928.1
20260506153519 49 0.0 0.0 0.00 0.00 0.00 82 928.3
20260506151919 48 0.0 0.0 0.00 0.00 0.00 82 928.2
20260506150319 47 0.0 0.0 0.00 0.00 0.00 82 928.3
20260506144719 47 0.0 0.0 0.00 0.00 0.00 82 928.8
20260506143118 46 0.0 0.0 0.00 0.00 0.00 82 928.6
20260506141519 46 0.0 0.0 0.00 0.00 0.00 82 928.8
20260506135919 45 0.0 0.0 0.00 0.00 0.00 81 929.0
20260506134319 46 0.0 0.0 0.00 0.00 0.00 81 929.3
20260506132719 47 0.0 0.0 0.00 0.00 0.00 81 929.9
20260506131119 47 0.0 0.0 0.00 0.00 0.00 81 929.4
20260506124150 49 0.0 0.0 0.00 0.00 0.00 80 928.2
20260506122549 50 0.0 0.0 0.00 0.00 0.00 78 928.0
20260506120950 51 0.0 0.0 0.00 0.00 0.00 77 927.4
20260506115349 51 0.0 0.0 0.00 0.00 0.00 78 927.3
20260506113749 50 0.0 0.0 0.00 0.00 0.00 80 927.3
20260506112149 49 0.0 0.0 0.00 0.00 0.00 80 927.5
20260506110550 49 0.0 0.0 0.00 0.00 0.00 80 927.9
20260506104950 49 0.0 0.0 0.00 0.00 0.00 79 927.9
20260506103350 49 0.0 0.0 0.00 0.00 0.00 77 928.0
20260506101750 49 0.0 0.0 0.00 0.00 0.00 77 927.7
20260506100150 49 0.0 0.0 0.00 0.00 0.00 78 927.3
20260506094550 49 0.0 0.0 0.00 0.00 0.00 78 927.3
20260506092950 49 0.0 0.0 0.00 0.00 0.00 77 927.4
20260506091349 50 0.0 0.0 0.00 0.00 0.00 77 927.4
20260506085750 49 0.0 0.0 0.00 0.00 0.00 80 927.5
20260506084150 49 0.0 0.0 0.00 0.00 0.00 80 927.5
20260506082550 48 0.0 0.0 0.00 0.00 0.00 81 927.5
20260506080949 48 0.0 0.0 0.00 0.00 0.00 80 927.4
20260506072150 47 0.0 0.0 0.00 0.00 0.00 80 927.7
20260506070550 47 0.0 0.0 0.00 0.00 0.00 81 927.9
20260506061750 47 0.0 0.0 0.00 0.00 0.00 83 928.1
20260506060150 47 0.0 0.0 0.00 0.00 0.00 83 928.0
20260506051350 48 0.0 0.0 0.00 0.00 0.00 83 928.5
20260506044149 48 0.0 0.0 0.00 0.00 0.00 82 928.6
20260506042550 48 0.0 0.0 0.00 0.00 0.00 83 928.9
20260506040949 48 0.0 0.0 0.00 0.00 0.00 83 928.8
20260506035350 48 0.0 0.0 0.00 0.00 0.00 83 929.1
20260506033750 48 0.0 0.0 0.00 0.00 0.00 83 929.1
20260506032150 48 0.0 0.0 0.00 0.00 0.00 84 929.3
20260506030550 48 0.0 0.0 0.00 0.00 0.00 84 929.5
20260506024950 48 0.0 0.0 0.00 0.00 0.00 84 929.7
20260506023350 49 0.0 0.0 0.00 0.00 0.00 83 929.7
20260506021750 49 0.0 0.0 0.00 0.00 0.00 83 929.8
20260506020149 49 0.0 0.0 0.00 0.00 0.00 83 929.7
20260506014549 49 0.0 0.0 0.00 0.00 0.00 84 929.8
20260506012950 49 0.0 0.0 0.00 0.00 0.00 84 930.0
20260506011350 49 0.0 0.0 0.00 0.00 0.00 84 930.2
20260506005750 49 0.0 0.0 0.00 0.00 0.00 84 930.3
20260506004150 49 0.0 0.0 0.00 0.00 0.00 84 930.3
20260506002550 48 0.0 0.0 0.00 0.00 0.00 84 930.5
20260506000949 49 0.0 0.0 0.00 0.00 0.00 83 930.7
20260505235349 49 0.0 0.0 0.00 0.00 0.00 84 930.8
20260505233749 48 0.0 0.0 0.00 0.00 0.00 83 931.0